{"data":{"norad_id":68955,"intl_designator":"2026-099E","name":"STARLINK-36794","alt_names":[],"object_type":"PAYLOAD","status":"ACTIVE","operator":null,"country":"US","launch_date":"2026-05-01","launch_site_code":"AFETR","launch_vehicle":null,"mission":null,"orbit_class":"UNKNOWN","rcs_meters":null,"size_class":null,"mass_kg":null,"dimensions":null,"purposes":["comms"],"wikipedia_slug":null,"has_3d_model":false,"image_url":null,"decayed_at":null,"tle_current":{"epoch":"2026-09-19T22:14:36.394368Z","epoch_age_seconds":68904,"freshness":"FRESH","line1":"1 68955U 26099E   26262.92681012  .00017882  00000+0  53857-3 0  9992","line2":"2 68955  53.1593  78.6625 0001148  84.3294 275.7840 15.34431062 21813","mean_motion":15.34431062,"eccentricity":0.0001148,"inclination_deg":53.1593,"raan_deg":78.6625,"arg_perigee_deg":84.3294,"mean_anomaly_deg":275.784,"bstar":0.00053857,"rev_number":2181,"period_min":93.845858289853,"perigee_km":461.82560109343,"apogee_km":463.39623681562,"semimajor_km":6840.7479189545,"source":"CELESTRAK","updated_at":"2026-09-20T09:00:44.052204Z"}}}